Terminal Aerodrome Forecast
Issued by NWS

Home | Current Version | Previous Version | Graphics & Text | Print | Product List | Glossary On
Versions: 1 2 3 4 5 6 7 8 9 10 11 12 13 14 15 16 17 18 19 20 21
000
FTUS43 KTOP 021700
TAFFOE
TAF
KFOE 021722Z 0218/0318 17010KT P6SM VCSH BKN110
     FM022000 17011G21KT P6SM SCT090
     FM030100 20011KT P6SM FEW150=

USA.gov is the U.S. government's official web portal to all federal, state and local government web resources and services.